Zurück zum Katalog

ATLAS 5 CENTAUR DEB

AktivGEO
NORAD 50214·DEBRIS·🇺🇸 United States

Gestartet Dec 7, 2021 von Cape Canaveral Space Force Station

Loading…

TLE

AktuellSource: Space-Track

Epoche: Sep 12, 2026, 20:53 UTC

1 50214U 21118D   26255.87038412 -.00000314  00000-0  00000-0 0  9997
2 50214   4.5365  76.2668 0012566  63.0319 297.4288  0.99331329 17292

Verfolge ATLAS 5 CENTAUR DEB in Echtzeit mit AllMySat

Download on the App Store